Anniston, AL

8:44 PM CDT on May 20, 2018 (GMT -0500)
Anniston Metro

Weather History for KANB - January, 2014

Change the Weather History Date:

Sunday, January 12, 2014

  Actual Average Record
Temperature  
Mean Temperature 46 °F 43 °F  
Max Temperature 60 °F 53 °F 75 °F (2013)
Min Temperature 31 °F 33 °F 4 °F (1962)
Degree Days  
Heating Degree Days 19    
Month to date heating degree days 322  
Since 1 July heating degree days 1395  
Moisture  
Dew Point 34 °F    
Average Humidity 62    
Maximum Humidity 92    
Minimum Humidity 32    
Precipitation  
Precipitation 0.00 in 0.14 in 2.60 in (1993)
Month to date precipitation 2.43 1.57  
Year to date precipitation 2.43 1.57  
Sea Level Pressure  
Sea Level Pressure 30.14 in    
Wind  
Wind Speed 3 mph (SW)    
Max Wind Speed 13 mph    
Max Gust Speed 15 mph    
Visibility 9 miles    
Events      
T = Trace of Precipitation, MM = Missing Value Source: NWS Daily Summary

Daily Weather History Graph

Daily Weather History Graph

Search for Another Location

Airport or City:

Astronomy

Jan. 12, 2014 Rise Set
Actual Time 6:48 AM CST 4:55 PM CST
Civil Twilight 6:21 AM CST 5:22 PM CST
Nautical Twilight 5:50 AM CST 5:53 PM CST
Astronomical Twilight 5:20 AM CST 6:23 PM CST
Moon 2:21 PM CST (1/12) 3:47 AM CST (1/12)
Length of Visible Light 11h 01m
Length of Day
10h 07m
Waxing Gibbous, 90% of the Moon is Illuminated
Jan 12
Waxing Gibbous
Jan 15
Full
Jan 23
Last Quarter
Jan 30
New
Feb 6
First Quarter

Hourly Weather History & Observations

Time (CST) Temp. Windchill Dew Point Humidity Pressure Visibility Wind Dir Wind Speed Gust Speed Precip Events Conditions
12:53 AM 39.9 °F 36.7 °F 36.0 °F 86% 30.05 in 10.0 mi SSW 4.6 mph - N/A   Clear
1:53 AM 39.0 °F 35.7 °F 35.1 °F 86% 30.07 in 10.0 mi West 4.6 mph - N/A   Clear
2:53 AM 37.0 °F - 33.1 °F 86% 30.08 in 10.0 mi Calm Calm - N/A   Clear
3:53 AM 35.1 °F - 33.1 °F 92% 30.08 in 10.0 mi Calm Calm - N/A   Clear
4:53 AM 33.1 °F 28.7 °F 30.9 °F 92% 30.11 in 3.0 mi SW 4.6 mph - N/A   Clear
4:56 AM 33.1 °F 30.0 °F 30.9 °F 92% 30.09 in 2.0 mi SW 3.5 mph - N/A   Partly Cloudy
5:03 AM 32.0 °F 26.4 °F 30.9 °F 96% 30.10 in 1.8 mi WSW 5.8 mph - N/A   Partly Cloudy
5:07 AM 33.1 °F 27.7 °F 30.9 °F 92% 30.10 in 3.0 mi WSW 5.8 mph - N/A   Partly Cloudy
5:53 AM 32.0 °F 28.7 °F 30.0 °F 92% 30.13 in 10.0 mi SW 3.5 mph - N/A   Clear
6:50 AM 33.8 °F - 30.2 °F 87% 30.13 in 5.0 mi Calm Calm - N/A   Partly Cloudy
6:53 AM 33.1 °F - 30.0 °F 89% 30.16 in 5.0 mi Calm Calm - N/A   Partly Cloudy
7:53 AM 36.0 °F - 34.0 °F 93% 30.19 in 10.0 mi Calm Calm - N/A   Clear
8:53 AM 43.0 °F - 39.0 °F 86% 30.22 in 10.0 mi Calm Calm - N/A   Clear
9:53 AM 48.9 °F - 37.9 °F 66% 30.22 in 10.0 mi WSW 6.9 mph - N/A   Clear
10:53 AM 52.0 °F - 37.0 °F 57% 30.20 in 10.0 mi Variable 5.8 mph - N/A   Clear
11:53 AM 55.9 °F - 34.0 °F 44% 30.17 in 10.0 mi SSW 4.6 mph - N/A   Clear
12:53 PM 57.9 °F - 32.0 °F 37% 30.14 in 10.0 mi West 5.8 mph - N/A   Clear
1:53 PM 59.0 °F - 30.9 °F 35% 30.14 in 10.0 mi WSW 8.1 mph - N/A   Clear
2:53 PM 60.1 °F - 30.9 °F 33% 30.13 in 10.0 mi SW 8.1 mph - N/A   Clear
3:53 PM 60.1 °F - 32.0 °F 35% 30.12 in 10.0 mi WSW 4.6 mph - N/A   Clear
4:53 PM 55.0 °F - 34.0 °F 45% 30.13 in 10.0 mi Calm Calm - N/A   Clear
5:53 PM 46.9 °F - 36.0 °F 66% 30.15 in 10.0 mi Calm Calm - N/A   Clear
6:53 PM 45.0 °F - 37.9 °F 76% 30.17 in 10.0 mi Calm Calm - N/A   Clear
7:53 PM 42.1 °F - 37.0 °F 82% 30.17 in 10.0 mi Calm Calm - N/A   Clear
8:53 PM 39.9 °F - 36.0 °F 86% 30.17 in 10.0 mi Calm Calm - N/A   Clear
9:53 PM 37.9 °F 35.5 °F 35.1 °F 89% 30.17 in 10.0 mi East 3.5 mph - N/A   Clear
10:53 PM 37.0 °F - 34.0 °F 89% 30.16 in 10.0 mi Calm Calm - N/A   Clear
11:53 PM 36.0 °F - 33.1 °F 89% 30.14 in 10.0 mi Calm Calm - N/A   Clear